TimeCST,TemperatureF,Dew PointF,Humidity,Sea Level PressureIn,VisibilityMPH,Wind Direction,Wind SpeedMPH,Gust SpeedMPH,PrecipitationIn,Events,Conditions,WindDirDegrees,DateUTC
12:15 AM,50.2,37.0,61,30.41,10.0,North,10.4,-,N/A,,Clear,360,2012-11-13 06:15:00
12:35 AM,49.6,37.4,63,30.41,10.0,North,8.1,-,N/A,,Clear,350,2012-11-13 06:35:00
12:55 AM,48.6,37.6,66,30.42,10.0,North,9.2,-,N/A,,Clear,350,2012-11-13 06:55:00
1:15 AM,46.4,37.4,71,30.42,10.0,North,8.1,-,N/A,,Clear,360,2012-11-13 07:15:00
1:35 AM,47.5,37.6,69,30.42,10.0,North,8.1,-,N/A,,Clear,360,2012-11-13 07:35:00
1:55 AM,47.5,37.8,69,30.42,10.0,North,8.1,-,N/A,,Clear,10,2012-11-13 07:55:00
2:15 AM,47.7,37.8,69,30.40,10.0,NNE,9.2,-,N/A,,Clear,20,2012-11-13 08:15:00
2:35 AM,48.0,37.4,67,30.41,10.0,North,6.9,-,N/A,,Clear,10,2012-11-13 08:35:00
2:55 AM,47.5,37.4,68,30.41,10.0,North,9.2,-,N/A,,Clear,10,2012-11-13 08:55:00
3:15 AM,47.3,37.6,69,30.41,10.0,North,8.1,-,N/A,,Clear,10,2012-11-13 09:15:00
3:35 AM,47.1,37.4,69,30.41,10.0,NNE,6.9,-,N/A,,Clear,20,2012-11-13 09:35:00
3:55 AM,46.9,37.0,68,30.41,10.0,NNE,6.9,-,N/A,,Clear,20,2012-11-13 09:55:00
4:15 AM,46.8,36.7,68,30.41,10.0,NNE,6.9,-,N/A,,Clear,20,2012-11-13 10:15:00
4:35 AM,46.8,36.3,67,30.40,10.0,NNE,9.2,-,N/A,,Clear,30,2012-11-13 10:35:00
4:55 AM,47.1,36.0,65,30.40,10.0,NNE,9.2,-,N/A,,Clear,30,2012-11-13 10:55:00
5:15 AM,46.8,35.6,65,30.41,10.0,NNE,10.4,-,N/A,,Clear,20,2012-11-13 11:15:00
5:35 AM,44.6,33.8,66,30.42,10.0,NNE,10.4,-,N/A,,Clear,20,2012-11-13 11:35:00
5:55 AM,46.4,34.5,63,30.42,10.0,NNE,9.2,-,N/A,,Clear,30,2012-11-13 11:55:00
6:15 AM,45.7,34.3,65,30.43,10.0,NNE,8.1,-,N/A,,Clear,30,2012-11-13 12:15:00
6:35 AM,44.6,33.8,66,30.43,10.0,NNE,8.1,-,N/A,,Clear,30,2012-11-13 12:35:00
6:55 AM,45.0,34.2,66,30.43,10.0,NNE,9.2,-,N/A,,Clear,30,2012-11-13 12:55:00
7:15 AM,45.3,34.0,65,30.43,10.0,NE,9.2,-,N/A,,Clear,40,2012-11-13 13:15:00
7:35 AM,46.8,33.6,60,30.43,10.0,NE,12.7,17.3,N/A,,Clear,40,2012-11-13 13:35:00
7:55 AM,49.1,32.5,53,30.44,10.0,NE,17.3,-,N/A,,Clear,50,2012-11-13 13:55:00
8:15 AM,50.7,32.0,49,30.44,10.0,NE,15.0,20.7,N/A,,Clear,50,2012-11-13 14:15:00
8:35 AM,52.9,30.6,43,30.45,10.0,NE,16.1,23.0,N/A,,Clear,50,2012-11-13 14:35:00
8:55 AM,54.7,28.8,37,30.45,10.0,NE,17.3,23.0,N/A,,Clear,50,2012-11-13 14:55:00
9:15 AM,54.9,28.0,36,30.45,10.0,NE,16.1,24.2,N/A,,Clear,50,2012-11-13 15:15:00
9:35 AM,55.6,28.0,35,30.45,10.0,NE,18.4,21.9,N/A,,Clear,50,2012-11-13 15:35:00
9:55 AM,56.7,27.0,32,30.44,10.0,NE,19.6,27.6,N/A,,Clear,40,2012-11-13 15:55:00
10:15 AM,58.3,27.3,31,30.44,10.0,ENE,20.7,26.5,N/A,,Clear,60,2012-11-13 16:15:00
10:35 AM,59.2,26.6,29,30.43,10.0,ENE,16.1,24.2,N/A,,Clear,70,2012-11-13 16:35:00
10:55 AM,59.2,26.8,29,30.42,10.0,ENE,17.3,23.0,N/A,,Clear,60,2012-11-13 16:55:00
11:15 AM,60.1,26.6,28,30.42,10.0,NE,15.0,19.6,N/A,,Clear,50,2012-11-13 17:15:00
11:35 AM,61.0,26.8,27,30.40,10.0,East,15.0,19.6,N/A,,Clear,80,2012-11-13 17:35:00
11:55 AM,61.7,27.3,27,30.38,10.0,ENE,12.7,-,N/A,,Clear,60,2012-11-13 17:55:00
12:15 PM,61.2,27.9,28,30.39,10.0,NE,10.4,-,N/A,,Clear,50,2012-11-13 18:15:00
12:35 PM,60.8,30.2,31,30.38,10.0,NE,10.4,-,N/A,,Clear,50,2012-11-13 18:35:00
12:55 PM,61.2,28.2,29,30.37,10.0,NNE,10.4,-,N/A,,Clear,30,2012-11-13 18:55:00
1:15 PM,61.3,27.5,28,30.36,10.0,NE,8.1,-,N/A,,Clear,50,2012-11-13 19:15:00
1:35 PM,61.5,27.9,28,30.35,10.0,NE,9.2,-,N/A,,Clear,40,2012-11-13 19:35:00
1:55 PM,62.1,27.3,27,30.34,10.0,ENE,6.9,-,N/A,,Clear,70,2012-11-13 19:55:00
2:15 PM,62.2,28.2,28,30.33,10.0,NNE,6.9,-,N/A,,Clear,30,2012-11-13 20:15:00
2:35 PM,61.5,28.6,29,30.32,10.0,ENE,5.8,-,N/A,,Clear,60,2012-11-13 20:35:00
2:55 PM,61.0,28.8,30,30.32,10.0,NE,5.8,-,N/A,,Clear,40,2012-11-13 20:55:00
3:15 PM,60.6,29.3,31,30.32,10.0,North,5.8,-,N/A,,Clear,10,2012-11-13 21:15:00
3:35 PM,60.4,30.9,33,30.32,10.0,NNE,5.8,-,N/A,,Scattered Clouds,20,2012-11-13 21:35:00
3:55 PM,59.7,31.3,34,30.32,10.0,NNE,5.8,-,N/A,,Scattered Clouds,20,2012-11-13 21:55:00
4:15 PM,59.0,31.5,35,30.33,10.0,North,4.6,-,N/A,,Scattered Clouds,360,2012-11-13 22:15:00
4:35 PM,58.5,31.6,36,30.33,10.0,NNE,3.5,-,N/A,,Scattered Clouds,30,2012-11-13 22:35:00
4:55 PM,57.9,32.0,37,30.32,10.0,Calm,Calm,-,N/A,,Clear,0,2012-11-13 22:55:00
5:15 PM,57.0,33.1,40,30.32,10.0,Calm,Calm,-,N/A,,Clear,0,2012-11-13 23:15:00
5:35 PM,55.4,35.6,47,30.32,10.0,North,3.5,-,N/A,,Clear,10,2012-11-13 23:35:00
5:55 PM,54.9,37.0,51,30.32,10.0,NNE,3.5,-,N/A,,Clear,30,2012-11-13 23:55:00
6:15 PM,54.1,37.9,54,30.31,10.0,ENE,4.6,-,N/A,,Clear,60,2012-11-14 00:15:00
6:35 PM,54.1,37.8,54,30.32,10.0,Calm,Calm,-,N/A,,Clear,0,2012-11-14 00:35:00
6:55 PM,54.5,36.5,51,30.32,10.0,Calm,Calm,-,N/A,,Clear,0,2012-11-14 00:55:00
7:15 PM,54.7,36.5,50,30.33,10.0,Calm,Calm,-,N/A,,Clear,0,2012-11-14 01:15:00
7:35 PM,54.1,38.3,55,30.33,10.0,Calm,Calm,-,N/A,,Clear,0,2012-11-14 01:35:00
7:55 PM,53.8,39.7,59,30.32,10.0,Calm,Calm,-,N/A,,Clear,0,2012-11-14 01:55:00
8:15 PM,53.2,40.5,62,30.31,10.0,ESE,3.5,-,N/A,,Scattered Clouds,120,2012-11-14 02:15:00
8:35 PM,53.1,40.6,63,30.32,10.0,Calm,Calm,-,N/A,,Scattered Clouds,0,2012-11-14 02:35:00
8:55 PM,53.1,39.6,60,30.36,10.0,WNW,4.6,-,N/A,,Clear,290,2012-11-14 02:55:00
9:15 PM,52.9,39.4,60,30.36,10.0,Calm,Calm,-,N/A,,Clear,0,2012-11-14 03:15:00
9:35 PM,52.2,40.3,64,30.35,10.0,Calm,Calm,-,N/A,,Clear,0,2012-11-14 03:35:00
9:55 PM,51.8,40.8,66,30.36,10.0,Calm,Calm,-,N/A,,Clear,0,2012-11-14 03:55:00
10:15 PM,50.4,40.6,69,30.35,10.0,Calm,Calm,-,N/A,,Clear,0,2012-11-14 04:15:00
10:35 PM,50.0,39.6,67,30.36,10.0,NW,3.5,-,N/A,,Clear,320,2012-11-14 04:35:00
10:55 PM,48.4,39.7,72,30.36,10.0,North,4.6,-,N/A,,Scattered Clouds,360,2012-11-14 04:55:00
11:15 PM,47.1,39.9,76,30.36,10.0,North,4.6,-,N/A,,Scattered Clouds,360,2012-11-14 05:15:00
11:35 PM,48.6,39.6,71,30.36,10.0,North,3.5,-,N/A,,Clear,360,2012-11-14 05:35:00
11:55 PM,49.3,40.3,71,30.35,10.0,NE,4.6,-,N/A,,Scattered Clouds,40,2012-11-14 05:55:00